Location: Casco Millpond
(44.5581°N, 87.6111°W)
Time: 22:17:13
(UTC+00:00)

Meteor 1-22 Rocket - Pass Details

Date: 16 January 2026
Orbit: 787 x 938 km, 81.2° (Epoch: 13 February)

Event Time Altitude Azimuth Distance (km) Brightness Sun altitude
Rises 12:12:24 0° 186° (S) 3,582 7.6 -12.4°
Reaches altitude 10° 12:14:53 10° 186° (S) 2,640 6.9 -12.0°
Maximum altitude 12:20:57 85° 99° (E) 936 4.5 -10.9°
Drops below altitude 10° 12:26:56 10° 12° (NNE) 2,601 6.7 -9.9°
Sets 12:29:23 0° 12° (NNE) 3,527 7.3 -9.5°
